ZHONGXING-19

Last updated on Fri Dec 19 2025 00:02:53 GMT+0000 (Coordinated Universal Time)

1 54230U 22148A 25352.62864056 -.00000054 00000+0 00000+0 0 9993 2 54230 0.0276 280.7871 0008890 323.6721 232.7450 1.00271622 11571
UTC large
Height (km)
Speed (km/s)
/
Latitude / Longitude
Inclination (degrees)
Orbital Period (minutes)
Azimuth
Elevation
Range (km)
Doppler Factor

Next 0 passes for location: London (51.5072 / 0.1276)

Sorry there are no passes over London.